Thermal, CA

9:10 AM PDT on April 25, 2017 (GMT -0700)
Desert Resorts Regional

Weather History for KTRM - March, 2013

Change the Weather History Date:

Sunday, March 17, 2013

  Actual Average Record
Temperature  
Mean Temperature 81 °F 64 °F  
Max Temperature 94 °F 81 °F 102 °F (2007)
Min Temperature 67 °F 47 °F 33 °F (2002)
Degree Days  
Heating Degree Days 0 3  
Month to date heating degree days 33 64  
Since 1 July heating degree days 1121 1129  
Cooling Degree Days 16 2  
Month to date cooling degree days 67 25  
Year to date cooling degree days 67 37  
Growing Degree Days 30 (Base 50)    
Moisture  
Dew Point 34 °F    
Average Humidity 22    
Maximum Humidity 37    
Minimum Humidity 6    
Precipitation  
Precipitation 0.00 in 0.01 in 0.07 in (1963)
Month to date precipitation 0.07 0.29  
Year to date precipitation 0.44 1.62  
Since 1 July precipitation 2.62  
Snow  
Snow 0.00 in - - ()
Month to date snowfall 0.0  
Year to date snowfall 0.0  
Snow Depth 0.00 in    
Sea Level Pressure  
Sea Level Pressure 29.78 in    
Wind  
Wind Speed 10 mph (NW)    
Max Wind Speed 25 mph    
Max Gust Speed 32 mph    
Visibility 10 miles    
Events      
T = Trace of Precipitation, MM = Missing Value Source: NWS Daily Summary

Daily Weather History Graph

Daily Weather History Graph

Search for Another Location

Airport or City:

Trip Planner

Search our weather history database for the weather conditions in past years. The results will help you decide how hot, cold, wet, or windy it might be!

Date:

Astronomy

Mar. 17, 2013 Rise Set
Actual Time 6:51 AM PDT 6:54 PM PDT
Civil Twilight 6:27 AM PDT 7:19 PM PDT
Nautical Twilight 5:58 AM PDT 7:48 PM PDT
Astronomical Twilight 5:29 AM PDT 8:17 PM PDT
Moon 10:23 AM PDT (3/17) No Moon Set
Length of Visible Light 12h 51m
Length of Day
12h 02m
Waxing Crescent, 32% of the Moon is Illuminated
Mar 17
Waxing Crescent
Mar 19
First Quarter
Mar 27
Full
Apr 2
Last Quarter
Apr 10
New

Hourly Weather History & Observations

Time (PDT) Temp. Dew Point Humidity Pressure Visibility Wind Dir Wind Speed Gust Speed Precip Events Conditions
12:52 AM 73.0 °F 42.1 °F 33% 29.74 in 10.0 mi NNW 11.5 mph - N/A   Clear
1:52 AM 72.0 °F 39.9 °F 31% 29.73 in 10.0 mi NNW 12.7 mph - N/A   Clear
2:52 AM 71.1 °F 37.9 °F 30% 29.72 in 10.0 mi NW 11.5 mph - N/A   Clear
3:52 AM 72.0 °F 37.9 °F 29% 29.71 in 10.0 mi NNW 13.8 mph - N/A   Clear
4:52 AM 72.0 °F 39.0 °F 30% 29.73 in 10.0 mi NNW 21.9 mph 26.5 mph N/A   Clear
5:52 AM 71.1 °F 39.9 °F 32% 29.75 in 10.0 mi NNW 11.5 mph 20.7 mph N/A   Clear
6:52 AM 69.1 °F 41.0 °F 36% 29.82 in 10.0 mi NNW 9.2 mph - N/A   Clear
7:52 AM 69.1 °F 42.1 °F 38% 29.81 in 10.0 mi NW 15.0 mph 20.7 mph N/A   Clear
8:52 AM 73.9 °F 39.9 °F 29% 29.87 in 10.0 mi NNW 9.2 mph - N/A   Clear
9:52 AM 78.1 °F 37.0 °F 23% 29.88 in 10.0 mi NNW 15.0 mph - N/A   Clear
10:52 AM 82.0 °F 37.0 °F 20% 29.85 in 10.0 mi WNW 9.2 mph - N/A   Clear
11:52 AM 88.0 °F 24.1 °F 10% 29.85 in 10.0 mi WNW 6.9 mph - N/A   Clear
12:52 PM 90.0 °F 21.9 °F 8% 29.82 in 10.0 mi NNW 8.1 mph - N/A   Clear
1:52 PM 91.0 °F 19.9 °F 7% 29.79 in 10.0 mi Calm Calm - N/A   Clear
2:52 PM 91.9 °F 18.0 °F 7% 29.76 in 10.0 mi Calm Calm - N/A   Clear
3:52 PM 91.9 °F 15.1 °F 6% 29.74 in 10.0 mi Variable 4.6 mph - N/A   Clear
4:52 PM 91.9 °F 19.0 °F 7% 29.74 in 10.0 mi West 5.8 mph - N/A   Clear
5:52 PM 90.0 °F 19.0 °F 7% 29.74 in 10.0 mi Calm Calm - N/A   Clear
6:52 PM 84.0 °F 32.0 °F 15% 29.76 in 10.0 mi Calm Calm - N/A   Clear
7:52 PM 79.0 °F 39.9 °F 25% 29.76 in 10.0 mi NNW 12.7 mph - N/A   Clear
8:52 PM 78.1 °F 41.0 °F 27% 29.78 in 10.0 mi NNW 16.1 mph 24.2 mph N/A   Clear
9:52 PM 75.9 °F 43.0 °F 31% 29.79 in 10.0 mi NW 13.8 mph - N/A   Clear
10:52 PM 75.0 °F 45.0 °F 34% 29.81 in 10.0 mi NW 17.3 mph 25.3 mph N/A   Clear
11:52 PM 73.0 °F 45.0 °F 37% 29.81 in 10.0 mi NW 12.7 mph - N/A   Clear